Theta_e
304 304 304 304 305 305 305 305 306 306 306 306 307 308 307 307 307 307 308 309 309 309 309 308 309 309 308 308 309 309 309 308 307 308 307 307 308 309 310 311 311 312 312 313 313 314 314 314 314 315 315 315 316 315 316 318 318 320 319 317 316 315 315 316 317 316 316 313 313 313 312 310 308 307 306 307 307 303 303 304 304 305 306 306 305 303 301 299
304 304 305 305 305 305 305 306 306 306 306 306 307 308 308 308 307 307 307 308 309 309 309 309 309 309 309 308 308 309 310 309 308 308 307 307 309 310 310 310 311 311 312 313 313 313 313 313 314 314 314 314 314 314 315 316 317 317 316 314 314 313 313 315 316 315 314 312 311 312 311 310 309 308 307 307 306 305 304 303 304 303 303 303 302 301 299 297
304 305 305 305 306 306 306 306 306 306 306 307 307 308 308 308 308 307 307 308 309 309 309 309 309 309 309 309 308 308 310 310 308 307 307 308 309 309 310 310 311 311 311 312 313 313 313 313 314 314 313 313 312 313 313 314 315 315 314 312 311 311 311 312 313 313 312 311 310 309 309 309 309 309 308 306 305 304 304 303 304 302 302 301 300 299 298 296
304 305 305 306 306 307 306 306 306 306 307 307 308 308 308 308 308 308 307 308 309 309 309 309 309 309 309 309 308 308 310 310 307 306 307 308 309 309 309 310 311 311 311 312 312 313 313 314 314 313 313 312 312 311 310 311 313 313 313 312 311 310 309 310 311 311 311 311 310 309 307 306 306 308 308 306 304 302 302 302 302 302 301 301 299 299 298 297
305 305 305 306 307 307 307 306 306 306 307 308 308 308 308 308 309 309 308 308 308 309 309 309 309 310 310 309 309 308 310 311 307 305 307 307 309 309 310 310 310 311 311 312 312 312 313 313 313 313 313 312 312 311 310 310 311 310 310 310 310 310 309 308 309 310 311 310 309 308 307 305 305 305 305 305 303 301 301 301 301 301 300 299 299 298 298 297
305 305 305 306 307 307 307 306 306 306 307 308 307 308 309 309 309 309 310 309 309 309 309 310 309 309 309 309 310 310 310 309 306 305 307 307 308 309 309 310 310 311 312 312 312 312 312 312 312 311 311 310 310 310 309 309 309 307 307 308 308 309 308 307 308 309 310 310 309 308 306 305 304 302 301 301 300 300 300 299 299 299 298 298 298 297 297 296
305 305 305 305 307 307 306 306 306 306 307 308 307 307 309 309 309 309 310 310 310 310 309 310 310 311 310 310 310 310 307 305 304 305 306 307 307 308 309 309 310 311 312 312 312 312 312 312 311 311 310 309 309 308 308 308 308 307 306 307 307 307 307 306 307 308 308 308 308 307 306 304 302 301 300 299 299 298 298 297 297 297 297 297 296 296 296 296
304 305 305 305 306 307 307 306 306 307 307 308 307 307 309 310 309 309 309 310 310 311 311 310 310 311 311 312 311 309 305 304 305 305 306 307 307 308 308 309 309 310 311 312 312 312 312 312 311 311 310 309 309 308 308 307 306 306 306 306 306 306 306 306 307 307 306 306 306 304 303 302 301 300 299 299 298 298 297 297 297 297 297 297 296 296 296 296
305 305 305 305 305 307 308 307 306 307 308 307 307 307 308 309 309 309 309 309 310 310 311 310 310 309 310 312 312 309 304 304 305 305 306 306 307 308 308 308 309 309 309 310 311 311 311 311 310 310 310 309 309 309 308 307 306 305 305 305 305 305 305 305 306 306 306 305 304 303 303 302 302 302 300 299 298 298 298 298 298 298 298 298 297 297 297 297
305 304 305 305 305 306 307 308 307 307 308 307 307 307 308 309 309 309 309 309 310 310 310 310 310 310 310 312 311 308 304 304 305 306 306 306 307 307 308 308 309 309 309 310 310 309 309 309 309 309 308 308 308 308 308 307 305 305 305 305 304 304 304 304 305 306 306 306 305 304 304 303 303 303 300 299 298 299 299 298 298 298 298 298 298 298 298 297
304 305 305 305 305 306 307 309 308 307 308 308 308 309 309 309 310 310 310 310 310 311 310 310 310 310 311 311 309 306 305 305 306 306 306 306 306 307 307 307 308 308 308 309 308 308 308 308 308 308 307 307 306 306 306 305 305 305 305 304 304 304 304 304 304 305 305 305 305 305 304 303 303 301 300 299 299 299 299 299 299 299 299 298 298 298 298 298
305 305 305 305 305 306 308 309 308 308 308 308 309 309 309 309 310 310 310 310 310 311 311 311 311 311 312 310 305 304 304 305 305 305 306 306 306 306 306 306 307 307 307 307 307 307 308 308 308 308 307 306 306 306 305 305 305 305 305 304 304 304 304 304 304 305 305 304 304 304 304 302 301 300 299 299 299 299 299 299 299 299 299 299 299 299 299 299
305 305 305 305 305 306 309 309 308 308 309 309 309 309 309 309 309 310 310 310 310 310 310 311 311 312 312 309 304 304 305 305 305 305 305 306 306 306 306 306 306 306 307 307 307 307 307 307 307 307 307 306 306 306 305 305 305 306 305 304 305 305 303 304 304 304 304 303 303 303 304 302 300 300 299 299 299 299 300 300 300 300 300 300 300 300 300 300
306 306 305 305 305 307 310 310 308 308 309 309 309 309 309 309 309 310 310 310 310 311 311 311 311 312 311 307 304 305 305 305 305 305 305 306 306 306 306 306 306 306 306 307 307 307 307 307 307 307 306 306 305 306 306 306 306 306 306 306 308 307 304 304 304 304 304 303 303 303 304 302 300 300 299 299 299 299 300 300 300 301 300 300 300 300 300 300
306 306 305 305 306 308 310 310 308 308 309 309 309 309 308 309 309 310 310 310 310 310 311 311 311 311 309 306 306 306 305 306 305 305 305 306 306 306 306 306 306 306 307 307 307 307 307 307 307 306 306 306 306 306 306 306 306 307 308 309 310 307 304 304 304 304 304 303 303 303 304 302 300 299 299 299 299 299 301 301 301 301 300 301 300 300 300 299
306 306 306 305 306 309 310 309 309 309 309 309 309 309 309 308 309 310 310 310 311 311 311 311 311 311 309 307 307 306 306 306 305 306 305 306 306 306 306 306 306 307 307 308 309 309 310 309 308 307 306 306 307 308 309 309 310 309 310 311 310 307 305 304 303 304 304 304 304 304 304 301 300 299 299 299 299 300 301 301 301 301 301 301 300 300 300 299
307 306 306 305 306 309 310 310 310 310 310 310 310 310 310 309 309 310 310 310 311 312 312 311 311 311 310 307 307 306 306 305 305 306 306 306 306 306 306 306 307 308 309 310 310 310 311 310 310 308 306 305 306 309 313 313 311 311 310 309 308 306 306 305 304 303 304 305 304 303 303 301 300 300 299 299 299 300 301 301 301 300 300 300 300 300 299 299
307 306 306 306 306 309 310 310 310 311 310 310 311 311 311 311 311 311 311 311 311 312 313 312 312 314 310 306 306 305 305 305 306 306 306 306 306 306 306 306 308 311 311 311 310 310 309 309 308 307 305 304 303 306 311 311 308 309 310 309 307 306 305 304 304 303 303 304 304 303 302 300 300 300 300 300 300 301 301 301 300 300 300 300 300 300 299 299
308 307 307 306 306 307 310 311 310 311 310 310 310 311 313 312 311 311 311 311 311 313 313 310 310 311 309 306 305 306 306 305 305 306 306 306 307 308 308 309 310 311 312 312 310 308 308 306 306 306 304 303 302 303 305 306 305 307 309 308 307 306 304 303 303 302 302 303 304 304 302 301 300 300 300 300 300 301 301 300 300 300 300 300 300 300 299 299
308 308 307 307 306 306 308 310 311 311 310 310 309 310 315 315 312 309 308 309 308 308 309 307 306 306 306 305 306 307 307 306 305 306 306 306 307 310 310 311 310 310 312 312 310 308 306 305 304 304 303 302 302 302 303 304 305 306 308 308 307 306 304 303 303 303 302 303 303 303 303 302 301 301 300 300 301 301 301 301 300 300 300 300 300 299 299 299
309 309 308 307 307 306 307 307 308 309 309 309 309 311 315 316 314 309 307 307 306 306 307 306 306 306 305 305 306 307 307 307 306 306 307 307 309 311 311 311 311 311 311 310 309 306 305 304 303 303 302 301 302 302 303 304 306 307 308 308 307 306 304 303 303 303 302 303 303 303 303 303 302 301 301 301 301 301 301 301 300 300 300 300 299 299 299 299
309 309 309 308 307 307 307 307 307 307 307 307 310 312 313 313 313 311 309 307 306 306 307 306 307 306 306 306 306 306 306 306 306 306 307 308 310 311 310 310 310 310 310 311 310 306 304 303 303 302 302 301 302 303 304 305 306 308 309 309 308 306 304 303 303 303 302 303 303 303 303 303 302 301 301 301 301 301 300 300 300 300 300 300 299 299 299 299
309 309 309 309 308 308 308 309 309 307 307 308 311 311 311 311 311 311 311 310 308 307 306 307 307 306 307 306 306 306 305 304 305 305 306 308 308 309 309 308 308 307 307 311 311 308 306 304 302 301 302 302 304 303 304 305 306 306 308 308 307 306 305 305 303 303 303 303 303 303 304 304 302 301 301 301 301 301 300 299 299 299 299 299 299 299 299 299
308 309 309 309 309 308 308 309 309 309 309 309 311 310 309 309 310 311 311 311 311 308 307 308 308 307 307 306 307 307 305 304 304 304 305 307 308 308 308 308 308 307 305 307 307 306 305 302 301 302 303 305 305 302 302 306 306 304 305 306 305 304 304 305 304 303 303 303 303 303 305 304 302 302 301 300 300 300 300 299 299 299 299 299 299 299 299 299
308 308 309 309 309 309 308 308 308 309 310 310 310 309 308 307 308 308 310 313 313 310 309 309 308 307 307 306 307 307 307 305 304 304 305 306 308 308 308 308 308 308 308 307 306 304 304 302 302 303 304 307 306 303 302 305 308 306 303 303 303 302 303 304 304 304 305 305 304 303 306 306 304 303 302 300 300 300 300 300 300 300 300 300 299 299 299 299
307 308 308 308 309 309 309 308 307 308 309 309 309 309 307 307 307 307 312 318 316 312 311 310 310 309 307 307 307 308 310 309 305 304 305 306 307 308 309 308 307 308 308 306 306 305 304 303 303 304 305 307 306 304 302 303 308 308 303 302 303 303 304 305 305 305 306 306 304 304 306 306 305 304 303 301 300 301 300 300 300 300 300 300 299 299 299 299
307 307 308 308 308 308 309 308 307 308 308 308 308 308 307 307 307 306 312 320 316 311 311 310 310 309 307 306 306 309 312 311 307 305 304 306 307 308 310 309 308 308 305 306 308 306 304 303 304 306 307 306 305 304 303 302 307 308 303 302 304 304 305 306 306 307 307 306 305 305 305 305 305 304 303 302 302 302 302 301 301 301 301 300 300 299 299 299
306 307 307 307 307 307 307 307 308 308 308 308 307 307 307 307 306 307 315 320 314 310 309 309 309 308 308 308 306 307 308 307 308 306 304 305 306 307 309 308 308 307 305 308 310 305 302 303 304 306 307 304 303 303 302 302 305 305 302 302 303 303 305 305 306 307 307 307 307 305 305 306 306 304 302 301 302 302 303 302 301 301 301 300 300 300 299 299
306 306 306 306 306 306 306 307 308 307 308 308 307 306 306 305 305 311 317 316 312 310 308 309 309 308 309 310 307 306 306 306 307 307 305 305 305 306 308 307 306 306 305 307 308 304 302 301 302 304 304 303 302 301 301 302 304 303 301 303 304 304 305 306 306 307 307 308 307 304 304 305 306 304 302 302 302 302 302 302 301 301 301 300 300 300 300 299
305 305 306 306 305 305 306 306 306 307 308 308 308 306 304 306 311 317 319 314 312 311 307 309 309 307 309 311 309 307 307 306 305 306 306 305 305 305 306 307 306 305 305 305 305 303 301 301 302 302 302 302 301 301 300 300 301 301 302 305 306 306 306 306 305 305 308 310 306 303 303 304 305 305 303 303 302 302 302 301 301 301 300 300 300 299 299 299
305 305 305 305 305 305 305 306 306 307 307 308 308 305 307 313 318 321 316 311 312 311 309 310 308 307 309 310 308 307 308 307 305 306 308 306 304 304 305 306 306 308 310 308 307 304 302 304 303 300 300 301 301 302 302 300 300 303 305 306 308 308 306 306 306 306 310 311 305 302 302 303 306 305 302 302 302 301 301 301 300 300 300 300 300 299 299 299
305 306 305 305 305 305 305 305 306 306 307 308 307 306 312 319 319 318 313 309 312 311 309 309 308 307 309 309 307 306 307 308 306 307 308 308 305 303 304 304 305 311 314 312 310 308 305 305 303 301 301 300 302 305 305 304 303 306 307 306 309 311 308 308 310 310 311 310 304 301 302 304 305 303 302 302 301 301 301 300 300 300 300 299 299 299 299 298
305 305 305 305 305 305 305 305 306 306 307 308 306 309 317 320 316 315 312 311 311 309 307 307 307 307 309 310 307 305 306 307 307 307 307 308 308 305 304 302 302 309 313 311 311 310 309 307 303 303 303 300 301 304 306 307 307 307 307 307 310 312 309 309 311 311 311 308 303 301 303 306 305 303 303 301 301 301 300 300 300 299 299 299 299 299 299 299
305 305 305 305 305 305 306 305 306 307 307 307 309 316 322 319 314 312 311 309 306 306 306 306 308 309 308 308 306 304 307 308 307 307 306 307 308 306 304 302 301 304 307 309 311 309 312 312 306 303 302 301 300 300 301 303 305 306 305 306 309 309 307 310 310 310 310 308 305 303 304 307 305 303 302 301 300 300 300 300 299 299 299 299 299 299 299 299
305 306 306 305 305 306 306 306 307 307 306 308 315 322 321 315 313 313 312 308 305 306 307 306 309 311 308 306 305 304 307 309 308 307 306 307 307 305 303 301 301 301 304 310 309 307 311 311 304 301 300 299 300 300 298 300 306 307 305 307 310 306 305 308 307 306 306 307 307 307 306 305 303 302 301 300 300 300 300 300 300 299 300 300 300 300 299 299
305 306 306 306 306 306 307 306 307 307 306 311 322 324 316 311 312 313 312 308 306 308 309 310 311 312 309 308 307 306 306 307 307 308 307 305 305 304 302 301 300 300 303 307 307 306 311 309 303 302 300 298 298 298 297 300 305 306 305 307 305 300 302 306 306 303 303 306 309 307 306 304 302 302 301 300 301 301 300 300 300 300 300 300 300 299 299 299
306 306 306 306 305 306 307 306 307 309 309 316 327 319 308 305 305 305 306 305 305 306 309 312 312 311 311 310 308 307 308 307 308 310 309 306 305 304 303 302 300 299 300 303 305 304 307 309 303 302 303 300 297 298 299 299 301 304 306 304 301 300 301 305 306 305 305 308 308 305 305 305 303 303 303 302 302 302 301 300 300 300 300 300 300 299 299 299
305 306 306 306 306 306 307 307 307 310 312 317 320 311 304 303 302 301 302 303 304 305 308 312 311 309 310 311 308 306 308 311 310 310 309 308 306 302 302 302 300 299 298 300 304 302 303 309 305 301 303 301 298 300 304 302 300 302 302 301 302 305 306 306 306 307 308 308 308 307 306 305 304 303 302 302 302 302 301 300 300 300 300 300 299 299 299 298
306 306 306 306 306 305 307 308 307 309 316 320 319 311 305 303 301 300 300 301 303 305 308 310 309 307 308 310 308 306 307 309 309 308 309 309 307 302 301 301 300 300 298 299 303 301 302 309 309 303 301 301 300 303 305 304 301 301 301 301 303 305 305 305 305 306 308 309 308 310 309 305 303 302 302 302 301 301 301 301 300 300 300 299 299 299 299 298
306 306 307 305 306 306 307 308 307 311 318 318 313 308 302 302 302 299 298 300 301 304 308 309 308 308 308 307 306 305 306 306 305 307 307 306 305 303 300 299 300 300 298 298 301 301 302 308 310 306 301 303 305 303 301 301 301 302 304 304 304 303 302 303 303 303 305 306 306 307 309 306 302 302 302 301 301 301 301 300 300 299 299 299 299 299 298 298
305 309 309 305 306 306 307 310 309 308 311 309 306 304 301 302 303 299 297 298 299 301 304 305 307 308 307 306 306 304 305 305 304 305 306 304 305 305 300 297 298 298 298 300 301 301 303 306 308 308 306 306 305 298 296 297 297 300 302 302 302 302 303 305 306 303 302 304 305 304 307 308 304 301 301 301 301 300 300 300 299 299 299 299 299 299 298 298
306 310 309 305 307 306 307 312 307 304 307 307 304 303 302 302 302 300 299 298 298 299 300 304 306 305 305 305 306 305 306 306 305 305 305 303 303 303 298 295 297 297 298 301 301 298 299 302 306 308 305 303 299 295 294 294 294 297 299 301 301 301 303 306 307 306 302 302 302 301 305 308 304 300 300 301 300 300 300 300 299 299 299 299 299 299 299 298
305 307 306 306 307 305 310 316 308 302 302 301 299 299 300 301 301 300 300 300 299 299 301 303 304 304 304 303 304 306 306 305 305 303 303 303 300 298 296 295 297 298 298 302 301 298 298 302 306 307 303 299 296 293 293 292 294 299 301 300 301 300 301 302 303 303 303 303 303 303 307 309 304 299 300 300 300 300 300 300 300 299 299 299 299 299 299 298
304 305 305 306 307 306 315 322 316 306 300 299 299 299 299 299 300 301 301 300 300 300 302 303 302 303 303 301 302 303 303 305 306 302 301 303 300 297 296 295 297 298 299 301 301 299 302 304 305 308 310 308 304 301 300 297 297 302 302 300 300 300 300 301 300 301 303 305 304 305 310 310 304 301 300 299 299 300 301 301 301 300 300 299 299 299 298 298
306 308 305 305 306 308 313 315 312 307 303 303 303 301 300 300 298 299 301 300 299 299 302 302 301 301 300 299 301 301 299 303 305 302 301 302 299 296 295 295 296 297 296 297 296 297 302 303 303 309 315 316 315 313 309 305 302 302 301 299 299 300 301 302 301 302 305 305 302 305 311 309 303 302 303 301 301 301 301 301 301 300 300 299 299 299 298 298
306 312 312 309 306 305 307 306 305 306 305 307 307 303 302 303 299 298 299 300 298 298 300 300 299 300 301 301 302 302 299 299 302 303 302 301 299 296 294 295 296 295 295 295 294 296 300 301 301 305 309 310 311 310 305 303 303 302 302 301 300 300 300 301 302 304 306 305 303 304 307 306 303 303 304 303 302 301 301 301 301 300 300 299 299 299 298 298
307 312 311 310 310 308 306 304 303 305 306 309 310 305 303 304 301 298 299 299 299 299 300 299 299 302 305 303 304 304 301 300 301 302 301 300 298 295 294 295 295 295 295 295 295 297 301 303 301 301 304 305 304 304 303 301 301 301 302 302 301 300 299 300 302 305 305 305 307 306 303 303 304 303 303 303 302 301 300 300 300 300 300 299 299 298 298 298
309 309 303 305 313 314 311 308 304 303 304 306 306 304 304 304 303 301 300 299 299 299 301 303 302 303 305 305 306 306 303 302 303 302 301 300 299 297 296 295 295 295 296 295 294 296 301 303 300 299 303 303 301 301 302 301 300 300 300 301 301 300 300 300 300 302 302 304 308 306 302 302 302 301 301 301 300 300 301 300 300 300 299 299 299 299 298 298
306 306 301 303 309 307 306 305 302 302 304 304 305 305 304 306 305 303 300 300 300 299 301 306 307 304 302 303 306 308 305 305 306 303 301 301 300 300 300 299 297 295 295 295 294 293 299 303 300 298 302 303 300 300 300 300 299 299 299 300 301 300 300 300 299 300 301 302 303 302 301 301 300 300 300 300 300 301 301 301 300 300 300 300 299 299 298 298
304 305 303 304 305 301 300 302 303 306 306 304 307 306 303 306 307 303 300 301 305 303 300 304 307 304 301 303 307 308 304 305 308 305 303 304 303 301 302 302 300 295 294 295 295 293 298 303 300 298 302 305 301 298 299 298 299 300 299 299 300 300 300 300 299 299 300 300 300 299 299 299 299 299 300 300 301 301 301 301 301 300 300 300 299 299 298 298
303 304 302 306 307 302 301 302 302 308 309 306 309 307 304 306 306 302 301 300 302 304 302 303 305 302 301 304 307 304 300 301 303 301 300 303 303 302 301 300 300 299 296 296 296 295 297 301 300 299 304 308 303 300 301 298 297 300 300 299 298 299 300 301 300 299 300 300 300 300 301 301 301 300 300 301 301 301 301 301 301 301 300 299 299 298 298 298
302 302 302 307 311 304 301 302 303 308 310 307 306 305 304 306 303 302 306 302 298 300 302 302 303 302 303 308 306 301 298 298 298 297 297 298 298 299 299 298 299 300 299 296 296 297 298 300 301 300 305 309 304 302 302 300 304 309 308 303 300 298 299 299 300 300 299 299 301 302 304 304 302 301 301 301 301 301 301 301 301 301 300 299 299 299 299 299
Wind_Speed
13 12 12 12 12 12 11 11 11 11 10 10 13 15 17 15 12 13 15 17 11 8 10 8 6 8 12 17 21 25 30 33 28 31 38 31 19 13 15 14 12 12 12 14 15 12 10 10 11 11 12 13 14 14 15 19 18 11 7 6 6 5 5 5 6 8 8 8 7 8 12 12 9 10 13 15 21 20 19 21 17 15 16 13 11 9 8 10
12 12 12 13 12 12 12 11 11 11 11 10 12 14 17 16 12 10 12 16 16 8 7 10 8 4 5 9 12 17 25 30 30 35 36 24 15 13 14 16 15 13 11 16 18 14 11 11 10 12 16 17 16 16 14 17 22 14 4 6 7 5 8 10 11 13 11 10 11 12 13 12 9 8 8 9 15 16 15 15 14 14 12 9 8 8 9 10
12 12 13 14 14 13 12 10 10 11 11 11 12 14 17 18 14 10 11 14 20 20 12 2 9 10 5 1 5 9 14 25 35 35 31 24 18 14 13 15 16 15 14 18 20 16 13 13 14 16 21 21 18 19 16 14 18 14 9 7 5 7 11 14 16 16 14 14 14 13 13 13 9 7 10 13 15 14 12 10 10 10 7 6 7 8 10 10
11 12 14 16 15 14 12 11 10 10 11 11 12 15 16 17 17 13 10 11 19 27 26 17 4 7 10 7 3 3 6 17 32 33 27 25 20 16 14 14 14 14 15 17 17 15 13 13 16 19 21 19 20 24 20 13 13 12 11 7 7 11 10 12 15 16 16 15 15 15 14 13 12 10 12 14 12 10 11 11 10 9 6 5 5 6 7 7
11 12 14 17 17 15 12 11 10 10 11 11 14 16 16 17 18 18 13 10 13 22 29 29 22 11 2 6 7 4 2 5 20 29 26 24 20 17 15 12 12 13 14 14 13 11 11 14 18 19 18 13 14 18 16 15 17 13 12 13 13 12 9 10 12 13 14 15 15 14 11 10 14 17 15 15 11 6 9 10 9 8 7 5 4 4 4 4
11 12 14 17 18 17 13 12 11 11 10 12 14 16 16 17 19 21 19 15 10 12 20 26 30 28 21 14 7 9 12 5 17 27 25 24 20 16 15 13 12 12 13 14 12 11 12 17 21 19 16 14 13 12 13 15 15 11 11 16 16 14 13 11 11 12 14 15 14 13 13 15 17 17 19 22 15 8 9 8 7 7 6 5 4 4 4 4
10 11 12 15 18 18 14 12 11 11 9 10 13 15 15 16 19 21 21 21 15 8 8 13 19 23 28 27 23 30 32 18 22 26 22 23 21 16 13 11 12 11 12 15 15 15 17 20 21 19 14 13 14 15 20 23 21 15 9 15 17 17 17 13 14 16 16 16 15 16 16 16 17 13 15 20 14 9 8 6 7 7 6 6 4 4 4 3
9 11 11 13 16 17 15 11 10 10 8 8 10 13 14 15 18 20 21 22 21 17 9 4 4 4 13 18 24 36 34 23 26 27 21 20 21 21 13 8 11 9 11 16 13 13 17 19 17 16 13 12 14 16 20 22 20 13 10 14 17 17 18 16 16 17 16 17 17 20 18 17 19 16 16 15 10 8 7 6 7 6 6 5 4 4 3 3
9 10 11 11 12 15 15 11 9 9 8 7 8 10 11 12 14 14 16 16 20 24 20 12 2 3 4 9 19 27 22 20 24 27 25 20 19 21 17 13 13 8 8 15 15 15 18 19 16 15 15 15 16 14 14 13 9 11 15 17 17 17 17 16 16 15 15 16 18 19 16 16 16 13 14 10 7 7 5 6 6 5 6 5 4 4 3 3
8 9 10 10 11 13 15 12 8 8 9 8 8 10 10 11 12 13 13 12 14 18 23 24 11 4 6 12 22 16 10 18 21 23 28 26 22 20 20 20 17 12 12 18 22 22 21 19 20 20 18 17 16 15 15 12 11 17 20 20 19 17 15 15 15 14 13 13 14 14 10 11 8 5 6 6 6 6 4 5 5 5 5 4 4 3 4 4
8 8 9 9 10 12 15 13 7 8 10 10 10 11 12 13 15 15 15 14 13 12 13 18 18 15 15 22 29 15 7 17 19 21 26 28 28 23 21 19 16 17 16 20 23 21 18 15 14 13 13 17 19 20 21 18 20 23 22 19 17 16 15 13 11 9 8 8 10 12 11 11 10 7 5 4 5 5 4 4 4 4 4 4 4 4 5 4
7 8 9 8 10 12 16 13 9 10 11 12 12 12 13 13 15 16 17 15 14 15 11 10 11 11 17 30 31 14 8 14 16 20 22 25 28 24 22 19 16 16 14 18 20 18 14 10 10 9 11 17 15 13 15 19 23 22 19 14 11 13 11 10 9 7 6 4 4 7 8 8 7 6 5 3 4 3 3 4 4 4 4 4 4 5 5 5
8 8 9 8 10 13 16 13 10 11 12 12 13 15 15 13 14 15 18 18 16 16 16 16 14 10 17 26 23 11 8 11 12 15 16 20 23 20 23 24 22 22 19 21 22 21 18 15 19 18 16 14 9 10 15 17 18 14 12 8 7 8 7 8 7 4 5 4 1 2 2 4 5 5 5 3 2 2 2 4 4 4 4 4 5 5 5 5
8 9 9 8 10 13 16 13 12 11 11 11 12 13 13 13 13 14 18 20 19 15 11 12 14 18 26 21 14 13 11 9 8 10 13 15 17 18 21 23 24 24 23 24 24 24 22 19 23 23 19 19 16 16 14 9 7 5 7 4 2 4 3 6 7 5 3 3 2 1 1 2 4 5 3 2 3 3 3 5 5 4 4 5 5 6 7 6
9 9 9 9 10 13 16 14 12 10 9 7 6 6 8 9 12 14 16 17 19 17 14 14 11 17 28 19 12 14 11 9 9 11 12 13 14 15 17 19 20 19 20 21 22 22 21 21 23 21 18 19 17 12 7 4 4 2 4 0 4 5 3 5 9 8 3 2 4 2 2 3 3 5 3 2 3 4 4 5 4 5 5 6 7 7 8 7
11 10 9 8 10 13 17 18 17 15 14 14 13 11 6 2 4 7 9 12 17 15 17 23 21 22 22 12 14 16 13 13 12 11 10 10 11 12 14 15 15 15 16 18 18 16 16 18 19 17 13 8 5 2 3 3 2 1 3 3 4 3 3 2 6 11 9 2 5 4 1 3 3 5 3 2 2 3 3 4 4 5 6 7 7 7 7 6
12 10 9 7 9 14 21 24 24 23 25 26 28 26 18 9 3 3 4 7 11 13 17 20 17 21 20 11 14 19 18 16 11 9 7 6 8 7 8 11 12 12 13 15 15 13 12 14 12 10 12 8 5 3 2 3 4 4 4 3 3 4 3 2 2 10 14 5 2 2 3 4 4 6 4 2 1 2 3 4 4 5 5 6 6 7 7 6
12 10 8 7 7 12 18 21 21 21 22 23 23 25 27 23 14 10 10 6 6 10 16 17 10 10 13 13 12 15 21 18 11 9 9 8 7 6 7 9 7 7 10 11 13 15 12 12 9 5 9 10 9 7 3 3 3 4 4 2 3 5 6 4 1 7 12 5 4 6 5 5 4 5 5 2 1 1 3 3 3 4 4 5 6 6 7 6
12 11 9 7 6 8 11 11 13 13 14 15 14 13 16 24 26 26 26 21 18 13 8 16 17 7 4 12 10 9 19 24 17 9 8 9 10 10 12 12 10 9 10 7 10 17 11 8 9 6 7 8 8 8 4 3 4 5 5 4 5 4 4 4 3 5 8 4 4 5 5 4 4 5 5 3 1 1 2 2 2 2 3 5 5 6 7 6
12 12 10 7 5 5 6 4 5 5 6 10 12 8 4 10 17 24 34 36 31 22 12 15 20 14 10 15 13 9 15 22 20 11 5 5 8 11 13 11 14 15 11 6 6 11 9 8 8 5 5 6 7 7 5 4 4 5 3 4 5 4 3 3 3 4 5 3 2 4 5 4 4 4 5 4 2 2 2 2 1 2 3 3 4 5 6 6
12 12 11 9 6 4 2 3 2 1 3 7 10 8 6 6 6 10 23 31 28 25 23 21 19 17 17 20 20 14 14 17 20 17 8 4 6 9 11 9 9 10 7 6 7 6 9 10 6 3 3 6 5 5 6 5 4 4 3 3 5 4 3 3 3 3 3 2 1 2 3 4 4 4 5 4 4 3 1 1 1 2 3 3 4 5 6 7
12 11 10 10 8 6 4 1 1 2 1 4 7 13 16 16 15 16 17 18 20 22 23 23 21 18 15 18 21 20 20 18 20 22 15 12 13 10 11 12 7 4 4 3 5 5 9 7 4 4 4 6 4 4 5 5 4 5 4 1 3 3 2 2 2 2 2 2 0 0 1 3 5 4 4 4 4 2 1 1 1 2 3 4 5 5 6 7
11 11 10 9 8 7 6 5 4 2 3 4 10 17 20 19 18 19 17 13 12 15 16 19 23 23 17 12 14 21 25 19 17 22 20 17 19 16 14 13 8 7 8 5 3 5 6 4 5 5 5 5 2 6 7 3 3 5 5 3 2 3 2 1 2 3 2 1 0 1 2 2 5 3 3 4 2 1 2 3 3 4 5 5 6 7 6 8
10 10 9 8 8 7 6 6 6 5 7 8 11 14 15 14 13 12 12 9 6 8 12 15 19 22 20 13 10 15 21 20 17 21 20 15 13 12 11 8 7 9 9 9 10 9 6 3 5 7 6 3 4 8 9 4 3 5 6 5 2 3 3 2 2 3 2 1 2 2 2 1 4 4 3 4 2 2 4 4 6 8 7 7 8 8 7 8
10 9 9 8 7 7 6 6 6 6 7 9 11 10 10 8 8 6 5 5 4 5 9 10 12 17 20 17 10 6 11 17 21 22 19 14 10 6 5 5 6 5 5 8 10 9 6 4 5 5 4 4 4 6 8 4 1 3 4 4 2 3 3 4 3 2 1 1 3 2 2 1 2 4 3 4 3 5 7 7 8 8 8 7 7 7 7 9
10 9 9 8 7 6 5 5 5 4 5 7 9 7 5 2 5 4 1 2 2 5 7 7 8 12 17 19 13 2 4 10 17 21 18 15 11 5 2 5 5 4 3 4 5 4 6 8 6 4 3 3 5 5 6 5 1 1 1 4 3 2 2 3 3 2 1 1 3 2 3 1 1 0 3 4 3 5 7 9 10 8 7 7 7 7 8 9
9 8 8 8 7 6 4 4 3 2 3 5 8 8 6 4 4 3 0 2 2 4 6 7 6 8 13 20 17 3 2 7 10 17 20 16 14 9 4 4 4 4 1 1 3 2 5 9 9 6 3 4 5 4 5 5 3 1 3 4 3 2 1 2 3 2 1 1 2 3 1 1 1 2 2 2 3 5 3 7 8 7 6 6 6 7 8 9
9 8 8 8 7 6 5 4 2 1 2 4 7 8 8 7 5 2 1 2 2 3 4 5 4 7 8 15 22 13 6 8 5 11 19 18 16 13 10 7 5 6 3 1 3 1 4 6 7 7 5 5 3 3 5 6 2 2 3 4 2 1 1 2 2 3 1 3 1 5 4 2 1 3 2 2 3 3 3 2 2 2 4 6 7 8 9 11
9 9 8 8 8 7 5 5 3 1 2 3 5 7 7 5 3 0 2 1 2 2 3 4 3 8 9 8 17 17 12 12 7 8 16 17 15 11 9 8 10 12 14 10 6 3 3 4 4 4 3 3 3 3 3 3 1 1 3 3 3 2 1 1 0 4 1 3 1 5 5 2 0 2 1 1 2 3 4 4 6 9 9 9 8 8 10 11
10 9 9 9 9 8 6 6 5 3 3 1 3 5 4 3 2 2 2 1 1 1 3 5 3 8 12 4 9 15 11 11 11 10 13 15 16 15 9 7 10 10 10 12 8 4 4 2 3 4 3 2 4 4 3 2 2 2 1 2 3 2 2 2 1 2 1 1 1 3 4 2 1 1 0 1 1 1 3 3 6 10 12 11 10 10 11 12
11 9 9 9 9 9 7 7 6 4 4 1 5 5 4 2 1 2 2 0 1 2 3 4 3 6 9 4 4 10 7 8 12 10 9 10 13 17 11 4 6 4 3 6 5 2 2 2 2 3 4 4 3 4 3 3 3 2 2 2 1 0 1 0 0 1 3 1 3 0 2 1 2 1 1 3 2 3 2 2 5 8 11 11 11 11 12 13
12 10 9 11 11 11 9 7 6 5 3 2 6 6 3 1 3 2 0 2 1 1 1 2 2 3 3 3 3 6 3 5 9 6 3 4 6 9 9 4 4 2 3 4 2 1 2 2 1 1 4 9 5 2 2 2 3 2 2 2 2 2 2 2 2 1 2 1 3 1 1 0 2 2 3 4 3 3 3 2 3 5 9 10 10 11 13 14
12 11 11 13 13 12 10 8 7 5 3 4 7 4 2 3 2 0 1 1 1 0 1 0 2 2 1 2 3 4 2 1 6 7 4 3 5 4 8 10 7 0 1 4 1 1 3 1 4 3 4 12 10 2 2 3 4 4 2 2 3 3 2 2 3 2 1 2 2 1 1 0 1 1 2 5 4 3 1 0 1 5 8 10 11 12 13 13
13 11 12 14 14 13 12 9 7 5 2 5 5 3 5 4 1 0 0 0 0 1 0 0 2 2 3 3 1 2 2 1 4 7 6 4 5 3 4 10 12 4 1 3 2 2 2 1 5 4 3 10 9 3 1 3 4 4 2 0 3 3 2 1 0 1 2 4 3 1 1 1 2 1 1 5 4 2 1 2 3 6 8 10 11 11 11 12
13 12 11 14 15 15 13 10 8 6 3 4 3 4 5 3 1 0 1 1 0 1 0 1 1 1 3 2 1 1 2 2 3 4 6 4 3 3 3 6 10 7 2 2 2 1 3 1 3 2 2 5 5 3 3 2 3 4 2 2 2 0 1 2 1 1 2 2 3 2 0 1 2 2 2 4 2 3 4 5 4 6 8 9 10 11 11 12
13 11 11 15 16 15 14 11 9 6 2 2 4 5 2 1 1 1 1 0 0 0 1 1 2 1 2 1 2 2 2 2 2 2 4 3 3 3 2 2 6 7 3 3 2 1 2 0 3 2 2 3 3 5 4 2 1 2 2 2 1 0 2 3 1 1 2 1 2 1 1 2 1 2 2 2 3 5 5 4 4 6 9 9 10 12 12 13
13 11 11 15 16 15 14 11 9 7 4 4 6 3 1 0 1 1 3 3 1 1 1 1 2 1 1 1 2 4 2 1 2 1 1 1 2 3 2 2 4 6 3 2 1 1 1 1 2 2 1 2 4 6 6 3 1 1 2 1 2 2 2 3 1 2 2 1 2 0 1 3 1 1 2 2 3 3 1 3 7 9 11 12 13 13 13 14
13 10 9 14 17 15 13 11 7 6 6 7 5 2 1 0 0 1 3 3 1 1 1 1 1 1 1 1 1 4 3 2 3 2 2 1 1 2 2 1 4 5 4 3 1 1 1 1 2 2 1 2 4 5 5 4 1 3 1 3 2 2 1 0 1 1 1 2 3 2 3 3 1 1 2 2 2 4 5 6 8 11 12 14 14 14 14 16
12 8 7 14 16 14 13 10 5 3 6 7 4 1 1 1 1 1 2 2 2 2 2 1 0 1 2 1 0 2 2 3 2 1 1 1 1 2 2 1 3 5 6 5 1 1 1 2 1 3 1 1 3 3 3 3 2 3 2 1 1 2 1 1 0 2 2 0 3 4 4 2 1 2 1 2 3 4 5 5 6 9 12 13 14 14 14 16
11 6 6 13 15 13 12 8 6 6 6 4 3 1 1 1 2 2 3 2 2 2 2 1 0 2 1 0 1 1 1 2 2 1 1 1 1 2 4 3 3 5 6 4 1 1 1 2 0 3 2 1 1 1 2 2 2 2 3 3 3 2 1 1 1 0 2 1 1 3 4 3 3 2 1 2 2 2 3 5 6 10 11 12 13 13 14 16
9 4 5 12 14 11 8 7 9 8 4 2 3 2 1 2 3 2 4 4 3 3 2 2 1 2 2 1 1 1 1 1 2 2 1 1 1 1 2 4 3 5 5 3 1 2 2 1 1 2 1 1 1 1 1 0 1 0 1 2 3 3 1 1 2 2 0 1 2 2 3 5 4 2 2 2 1 3 5 7 8 10 10 11 12 12 13 15
7 3 5 11 13 10 6 6 8 7 3 2 3 3 2 2 3 2 3 4 4 3 3 2 2 2 1 1 0 1 1 1 2 2 1 2 3 2 2 4 4 3 3 1 2 2 1 0 1 1 0 1 2 2 1 1 1 2 1 2 3 2 0 1 2 2 1 1 1 2 2 6 5 3 3 4 4 5 7 10 11 11 10 10 11 12 14 15
6 4 5 9 10 7 4 6 5 5 4 2 2 3 3 3 2 2 2 3 2 2 3 1 1 2 1 0 1 1 2 2 2 2 2 2 3 2 2 4 4 4 3 1 1 2 1 1 0 1 0 1 1 2 0 2 2 0 2 2 1 2 1 1 2 2 1 2 1 2 2 5 5 4 6 6 6 7 9 10 10 9 8 9 11 12 15 16
6 4 4 8 10 6 3 4 3 2 2 2 3 4 4 4 3 2 2 3 2 2 2 1 1 2 2 2 3 2 1 1 2 2 2 2 2 1 2 3 4 5 3 1 1 4 2 1 1 1 1 2 2 1 2 3 1 1 1 2 1 3 3 2 1 2 0 3 4 3 3 6 4 4 7 8 8 8 9 10 8 7 9 10 12 14 16 17
5 3 3 8 11 6 5 6 6 6 3 3 3 2 2 4 4 4 3 3 3 3 2 2 2 3 3 3 4 3 2 2 1 1 1 2 2 2 2 3 4 5 4 2 1 3 1 1 0 0 1 1 1 2 1 1 1 2 1 2 1 2 4 1 1 2 2 2 3 4 5 5 3 3 5 6 5 7 11 12 10 10 11 12 14 15 16 17
4 2 2 6 9 9 10 8 9 9 5 5 3 1 2 2 2 3 5 3 3 4 4 2 2 3 2 2 3 3 3 3 2 1 1 2 2 2 2 3 4 4 4 2 3 2 0 1 1 0 3 5 4 3 3 2 1 3 2 3 4 4 5 2 1 2 4 2 2 6 7 7 8 7 5 6 7 7 10 12 12 11 13 14 16 16 17 18
2 1 1 3 5 9 11 8 8 9 7 6 3 2 4 3 1 2 3 2 2 3 3 2 1 1 0 1 2 2 0 2 2 2 2 2 2 1 2 3 3 2 2 2 3 1 0 1 1 1 5 6 5 4 4 4 3 5 4 5 6 6 6 5 4 4 3 3 3 6 4 5 9 8 6 8 7 8 11 12 13 14 15 15 14 15 17 19
1 1 1 0 1 2 4 4 7 10 8 5 3 3 4 4 3 2 1 1 2 1 1 2 1 2 1 1 2 2 1 1 1 1 1 1 2 2 2 1 1 1 2 1 2 2 1 1 1 1 6 9 8 7 5 5 5 5 5 6 6 7 8 9 8 7 3 3 6 4 2 6 10 9 8 11 12 12 13 13 14 16 15 12 12 15 18 19
1 2 2 2 3 3 4 5 10 12 9 5 3 2 4 5 4 2 2 2 1 1 1 2 2 3 2 2 2 2 2 0 1 1 2 2 2 2 1 0 1 1 1 1 2 3 2 1 0 0 6 9 7 4 3 5 4 5 7 8 7 8 10 10 10 8 6 9 10 9 11 13 12 11 12 16 18 15 14 15 15 14 11 10 13 17 19 19
2 1 3 5 5 6 8 9 9 7 4 2 2 2 4 6 5 3 2 2 2 2 2 3 4 4 3 3 3 3 1 1 1 1 3 4 1 2 2 1 2 2 0 1 1 1 1 1 1 2 3 6 2 2 1 4 5 6 8 8 7 8 8 9 9 8 7 10 12 11 11 12 13 15 15 16 15 13 13 14 13 10 10 12 17 20 20 19
4 3 3 4 4 4 6 6 3 2 1 1 1 3 4 5 7 6 3 1 2 3 3 6 9 6 3 4 6 4 1 3 5 4 4 4 3 3 2 1 3 4 2 1 0 0 1 0 1 3 2 4 2 1 3 4 4 8 10 9 10 8 7 7 7 7 8 7 6 6 6 7 9 10 8 9 11 11 12 12 11 11 13 16 19 20 19 19
6 5 5 4 3 3 5 3 1 2 2 1 3 4 3 6 11 9 3 1 2 4 5 7 9 6 2 3 5 5 5 7 8 8 6 6 7 7 6 5 6 5 3 2 1 1 0 1 0 2 1 4 3 4 6 2 4 5 7 8 11 10 7 6 6 8 10 7 4 5 7 6 5 4 4 7 10 11 12 12 12 14 17 19 20 18 18 18
Wind_Direction
54 46 36 28 24 23 26 31 35 38 39 41 42 42 39 40 48 50 43 42 66 149 171 156 125 89 73 68 62 57 50 43 47 50 42 33 27 34 38 42 51 51 59 69 62 64 80 73 70 72 64 61 49 35 39 32 32 61 74 68 73 57 51 35 58 94 114 113 106 112 100 102 106 106 106 75 70 76 70 67 70 88 100 105 104 95 61 53
50 44 36 29 23 20 24 31 36 39 43 47 44 40 36 35 45 60 50 39 48 81 175 209 214 187 98 72 58 58 49 41 50 49 39 37 42 42 49 52 53 56 69 79 67 55 68 71 71 76 67 60 47 45 54 45 47 59 73 73 74 64 55 52 75 93 103 107 95 92 93 95 105 126 127 84 74 76 75 74 73 78 84 84 82 71 56 60
51 46 39 30 21 19 25 32 38 41 48 55 50 42 37 34 42 64 65 49 47 53 64 168 223 227 208 130 32 52 47 38 37 34 32 39 41 37 45 51 56 64 70 78 70 57 64 75 78 78 72 62 50 55 57 47 51 57 76 85 80 84 70 62 77 90 97 107 100 90 88 82 80 115 118 96 80 66 65 74 77 79 80 71 57 48 47 51
52 48 39 31 24 25 32 39 44 47 53 61 58 49 42 38 42 56 73 65 53 52 52 52 62 226 222 222 248 31 43 38 25 17 26 36 37 38 42 53 60 65 71 74 69 66 71 75 81 77 74 70 62 63 55 49 67 64 71 91 97 95 80 66 80 93 99 104 104 100 93 77 61 80 114 111 88 60 56 58 69 82 88 79 52 44 43 42
52 46 38 31 28 32 39 46 49 52 59 67 62 51 46 44 44 47 54 64 62 61 59 57 56 60 159 230 240 284 343 36 13 14 28 33 38 42 43 57 63 64 66 65 59 65 75 80 86 75 70 73 64 66 61 66 84 74 65 86 93 96 91 73 77 93 104 104 103 98 87 84 71 60 71 88 84 65 61 60 70 79 87 92 77 70 56 49
48 42 36 30 31 35 42 50 52 53 62 71 60 48 47 49 48 45 42 45 51 63 68 70 68 66 69 71 101 91 81 71 8 17 27 31 38 43 48 60 67 68 57 57 66 74 85 85 84 76 71 73 64 70 68 65 87 91 71 79 83 88 93 84 74 86 101 97 93 93 89 92 85 64 61 73 78 77 73 70 75 76 82 81 67 65 60 55
43 37 33 30 31 34 41 49 49 51 63 72 56 44 48 54 54 49 44 42 38 39 64 83 79 71 68 69 81 79 71 54 25 28 30 30 33 38 52 66 64 69 67 67 75 79 82 81 81 82 81 78 75 79 76 71 80 94 90 81 82 83 85 84 80 84 90 90 93 99 94 87 88 82 70 73 75 75 73 71 72 68 65 66 58 60 59 45
36 32 30 27 29 32 37 45 47 49 63 71 50 44 51 60 62 55 48 43 39 37 33 89 127 70 56 57 65 64 54 37 35 39 37 34 33 33 40 65 59 64 79 71 68 78 79 76 78 81 81 86 94 96 90 80 69 77 96 93 89 85 84 88 87 87 87 88 94 92 86 85 92 90 75 72 73 70 66 64 66 62 59 64 59 48 43 20
27 26 26 24 26 30 33 38 46 49 58 63 45 45 52 56 55 44 39 41 43 43 40 52 138 235 46 62 66 58 40 32 40 43 44 45 41 39 42 53 55 57 83 77 76 82 78 76 80 87 91 92 98 103 95 83 70 87 101 99 95 89 88 88 86 89 92 96 98 93 94 101 100 86 70 65 65 68 63 57 60 64 61 57 48 35 25 6
21 22 24 22 22 28 31 33 48 56 60 67 53 48 49 44 38 30 30 36 45 49 50 54 67 119 114 98 80 66 33 43 49 48 49 49 48 52 53 51 59 73 88 92 91 87 82 84 87 89 88 83 79 75 75 86 109 108 102 98 96 93 91 88 87 92 97 102 102 98 101 101 94 79 75 65 58 69 71 59 56 62 59 41 34 11 358 358
18 22 27 22 18 26 28 29 56 71 70 74 63 54 52 46 41 39 38 40 43 44 57 68 74 88 104 91 76 65 41 53 54 53 53 51 48 51 57 55 63 75 83 93 93 91 93 97 95 84 76 84 82 73 80 101 115 113 107 101 96 95 89 85 91 95 100 97 98 107 101 77 64 71 90 79 58 66 76 70 59 56 47 26 14 348 350 354
19 26 32 26 20 23 23 30 64 79 77 75 65 58 53 49 47 45 45 45 47 48 61 79 71 79 87 71 59 47 44 55 56 54 54 56 52 50 59 60 61 67 76 86 86 83 86 92 93 93 95 98 92 83 99 116 121 120 113 106 104 97 74 64 76 87 102 77 71 115 106 64 55 77 93 91 65 64 82 73 60 51 33 14 4 351 352 351
26 31 39 35 26 24 24 35 70 79 78 78 71 62 53 51 52 50 50 48 49 60 74 76 67 80 84 64 47 38 49 51 54 53 51 58 59 55 61 63 61 65 72 81 83 79 78 85 93 100 106 99 90 110 125 131 136 133 121 126 132 105 55 46 59 68 105 95 54 119 89 59 71 90 96 93 41 13 90 68 50 38 24 15 8 6 13 18
35 40 46 47 37 29 29 47 75 79 79 82 77 64 50 53 61 60 57 54 49 54 72 74 62 67 75 70 45 42 47 41 43 44 43 54 65 64 65 67 67 68 72 80 86 84 81 86 90 91 92 95 107 122 127 141 162 144 130 166 144 91 41 41 37 16 99 136 172 113 47 87 95 98 101 83 21 8 75 64 43 38 29 30 29 31 43 38
42 48 54 58 50 40 40 56 74 75 75 77 65 42 33 52 69 67 60 58 55 55 67 72 62 66 72 67 43 45 49 48 41 39 45 55 68 67 62 66 68 68 72 80 83 81 79 76 79 82 87 103 120 131 135 158 190 152 125 234 17 83 105 54 40 28 37 182 211 234 71 100 104 108 117 81 26 6 63 62 44 49 41 45 45 48 55 40
45 50 59 68 67 61 61 69 78 79 74 68 56 38 23 51 77 67 59 59 61 62 69 68 63 67 72 55 39 47 44 43 35 32 48 59 68 64 55 57 61 67 75 80 73 65 67 64 69 75 77 102 132 165 169 126 111 56 79 40 19 86 140 116 51 26 354 281 204 229 131 103 113 118 128 88 32 356 62 71 56 53 49 50 49 49 50 38
44 48 61 78 87 85 85 87 86 82 75 69 62 55 54 60 47 40 54 61 63 58 61 67 64 64 65 44 37 38 29 32 33 39 57 63 61 49 44 51 57 69 73 70 59 48 53 54 63 68 51 41 3 354 144 68 28 17 47 81 49 60 90 138 77 15 346 323 122 89 80 89 114 129 131 104 33 18 66 68 59 56 54 50 47 44 37 31
42 46 59 82 106 104 101 96 88 82 74 66 62 60 60 61 65 74 74 81 77 60 53 50 51 68 54 23 21 28 28 33 35 48 64 64 59 44 44 48 46 66 65 56 44 43 56 54 59 68 35 30 15 20 82 54 3 357 14 70 79 64 58 54 67 6 350 345 68 74 93 102 123 133 130 129 38 56 80 67 59 59 53 47 45 35 26 20
42 45 55 76 112 127 121 101 88 85 70 54 51 55 60 62 67 68 67 72 68 63 50 36 44 88 51 12 17 32 36 36 29 42 80 74 66 62 62 59 55 68 63 52 32 34 52 55 45 48 21 17 17 24 49 29 348 338 3 43 66 77 62 49 63 8 356 358 35 63 97 120 136 135 137 152 155 116 116 90 71 59 48 40 38 24 20 17
43 45 51 65 91 134 157 140 104 91 49 28 27 33 56 57 56 55 58 66 68 71 82 61 59 76 59 32 36 45 43 36 29 36 77 78 64 57 55 59 65 65 51 47 44 30 52 70 45 35 9 357 5 11 2 348 337 327 2 59 62 80 88 61 49 5 360 16 32 65 101 124 133 135 141 156 195 201 168 133 108 58 45 27 26 13 8 5
42 43 46 54 68 88 144 191 204 241 345 3 18 45 81 70 74 77 66 67 69 69 68 62 60 63 52 42 41 47 52 44 39 46 53 71 73 49 39 49 62 54 34 71 89 45 53 69 44 10 351 334 335 341 337 334 340 343 358 71 63 64 80 60 24 1 23 53 76 103 129 135 126 133 143 173 212 200 154 91 70 29 4 352 2 354 352 353
39 41 43 45 52 57 55 63 225 245 300 20 61 84 92 91 96 98 88 78 68 62 58 54 52 51 48 45 42 46 51 42 36 44 53 73 79 67 54 59 62 36 14 81 113 60 52 62 31 15 338 305 304 328 335 330 351 5 353 49 69 52 76 65 9 348 27 36 104 137 220 153 131 137 153 193 226 160 154 303 12 321 317 323 331 327 334 342
36 37 40 41 46 51 50 60 72 112 110 95 107 103 97 98 95 87 87 90 72 57 51 46 42 39 38 39 36 42 50 42 20 27 41 64 73 69 62 60 64 57 36 34 85 79 68 56 9 348 303 289 10 26 5 352 42 30 17 48 62 28 46 74 356 344 3 11 343 343 303 143 124 134 167 196 231 146 197 246 257 267 284 292 309 321 326 331
32 33 36 37 45 51 55 67 73 96 112 124 131 117 104 97 92 87 84 90 88 53 38 35 34 31 28 24 23 38 47 45 27 21 29 47 62 63 59 51 54 61 57 60 73 78 85 54 339 308 290 312 46 40 21 23 70 45 32 52 46 5 14 9 350 333 317 282 293 324 301 188 145 168 193 177 192 235 224 233 252 260 270 282 303 316 316 326
26 30 33 31 38 46 54 68 68 86 114 141 153 134 115 95 74 80 92 94 90 30 19 23 22 21 18 15 15 33 52 45 30 22 25 35 46 64 61 37 38 59 78 77 77 76 64 18 325 307 312 356 47 52 21 2 96 76 32 15 351 347 342 334 341 339 343 302 302 10 53 320 170 176 180 151 189 233 213 219 251 262 262 272 293 306 314 327
22 24 28 28 29 36 49 61 65 101 129 154 176 172 148 105 35 36 108 112 54 350 358 6 6 12 12 9 4 358 91 37 24 25 30 34 38 58 54 23 43 66 77 76 88 85 31 5 348 324 299 360 56 64 25 6 31 87 312 299 307 305 301 321 335 352 60 251 291 21 75 359 310 144 127 139 222 239 196 210 238 251 258 270 285 302 314 322
20 20 22 24 24 27 43 54 65 140 169 180 201 214 222 259 320 339 47 97 30 342 356 359 2 16 16 17 20 68 147 350 5 29 33 37 39 52 68 28 46 64 45 81 73 30 1 6 3 354 2 47 48 37 9 4 24 124 234 262 282 270 305 358 344 308 234 156 321 346 24 160 228 316 54 90 267 265 226 222 230 237 258 285 297 308 313 315
18 19 18 16 18 23 33 42 55 169 217 225 226 227 237 262 281 297 99 92 357 335 1 2 14 25 22 30 38 58 57 8 5 21 27 39 40 51 71 50 59 68 31 125 126 43 5 16 1 354 28 51 30 7 344 342 31 143 225 251 262 277 337 12 331 279 251 93 19 324 344 83 185 279 311 340 292 302 345 7 39 9 334 326 314 310 309 311
17 17 16 14 13 15 20 22 23 357 301 252 229 226 236 251 234 124 79 161 323 341 7 360 352 2 0 28 40 42 40 33 32 10 24 39 39 55 80 59 65 65 44 57 112 130 60 43 4 350 23 33 355 340 340 342 23 185 240 254 246 265 255 172 284 285 319 78 340 320 351 52 199 271 247 259 288 353 358 19 45 30 7 351 336 324 319 318
16 14 15 13 9 10 12 14 14 1 338 261 198 201 202 182 160 77 44 212 328 340 347 7 360 352 357 17 35 27 31 36 24 14 29 39 41 51 67 58 59 65 59 64 76 112 120 89 29 38 35 335 296 296 282 268 310 304 259 248 222 230 240 179 188 269 22 39 254 319 353 75 108 290 128 134 180 17 349 353 29 21 4 355 351 343 334 329
15 15 15 11 5 7 12 12 8 2 2 121 165 161 157 141 82 87 85 238 341 345 341 9 13 356 9 55 33 8 20 30 18 20 30 31 35 36 36 31 32 48 100 69 64 116 120 69 38 55 23 342 288 273 265 247 289 298 229 247 172 158 314 304 159 72 74 303 239 259 352 78 124 250 122 119 142 105 51 3 15 10 354 345 342 336 329 323
14 14 13 10 8 8 9 9 9 5 10 119 149 145 142 52 26 81 137 311 326 5 5 2 353 345 8 73 37 352 360 15 10 20 24 28 40 34 45 40 341 36 66 22 66 142 26 33 11 314 5 7 353 260 297 281 288 315 269 321 27 36 13 28 353 22 83 251 229 180 344 224 180 204 148 131 118 96 78 40 16 358 340 327 321 322 322 321
12 12 12 10 9 9 7 8 12 14 33 126 143 135 85 64 42 290 280 345 335 23 53 335 334 329 329 48 18 343 351 334 353 7 357 34 65 67 73 50 10 93 54 356 61 27 344 339 2 356 351 5 11 29 12 334 323 354 1 4 40 69 56 12 332 348 42 279 241 195 5 298 225 274 146 130 110 108 109 40 318 313 316 313 310 314 322 327
9 10 13 11 9 9 10 13 13 18 74 137 142 82 51 74 92 260 171 347 286 263 46 322 303 345 32 57 353 327 45 22 342 10 9 24 49 32 42 32 19 16 318 1 55 20 23 320 352 9 327 350 13 48 340 303 309 320 279 27 66 93 106 136 313 307 278 305 304 301 14 187 209 277 115 122 121 137 212 266 277 296 310 316 315 317 325 328
7 8 11 12 11 10 12 17 14 22 96 145 109 54 62 101 189 111 129 212 190 233 192 79 278 348 42 38 289 320 56 24 345 28 28 22 42 19 357 3 10 11 347 25 14 344 101 142 307 344 325 347 8 347 339 348 303 285 279 42 63 156 130 130 129 184 185 348 321 260 222 159 190 235 146 129 171 224 226 241 261 299 311 318 323 326 328 325
5 5 9 10 10 11 14 16 16 27 90 125 65 54 74 149 198 76 29 313 100 290 152 78 331 30 77 21 347 3 56 27 335 31 40 40 67 42 32 2 6 16 37 67 25 344 104 172 288 306 348 18 8 326 334 15 290 294 349 36 203 238 96 111 49 24 108 74 294 254 360 329 290 272 212 174 263 247 214 229 274 306 318 331 337 336 332 327
2 3 9 9 9 11 12 16 26 39 58 77 72 75 133 182 210 14 1 350 350 344 95 77 352 47 88 33 5 354 16 32 333 12 58 63 68 23 19 60 29 28 37 62 75 110 134 245 303 326 343 360 349 319 305 295 264 6 354 209 191 44 85 133 84 9 54 16 268 49 360 285 252 304 270 238 286 300 16 3 343 333 333 338 337 334 330 324
359 360 7 8 8 7 8 15 29 49 59 68 79 99 160 94 332 329 349 357 3 354 47 60 11 81 46 45 18 329 350 14 341 23 62 45 54 1 334 45 35 28 5 348 29 170 159 136 305 308 307 325 343 344 319 304 64 78 83 196 161 68 18 280 101 139 29 324 281 308 337 307 198 209 298 308 334 353 2 358 347 336 332 332 330 329 324 320
355 358 11 7 5 5 9 15 27 63 67 71 92 116 105 80 47 28 360 7 16 22 57 70 73 83 36 43 93 316 5 33 352 45 80 45 60 19 22 67 16 9 356 356 41 215 214 101 304 282 266 326 346 28 22 328 345 57 52 299 280 115 155 256 113 169 164 256 302 323 338 324 221 200 300 351 9 6 341 328 330 322 320 322 323 324 320 317
355 2 14 4 2 4 6 17 44 63 69 70 95 109 69 99 82 32 28 47 42 36 54 20 105 105 71 304 261 334 43 45 18 73 52 28 95 39 39 42 343 336 340 349 63 359 324 101 6 293 312 18 3 45 47 335 327 11 11 346 342 2 136 142 3 37 144 162 296 324 314 276 240 214 117 57 12 347 307 302 305 305 311 319 321 320 317 316
0 10 3 359 3 3 3 29 42 49 78 90 73 77 58 108 111 57 44 60 66 71 76 55 74 121 139 176 268 329 66 69 33 58 58 41 60 43 37 30 351 326 327 334 36 17 12 79 354 290 316 68 132 143 45 267 227 356 346 344 349 333 317 74 328 303 148 154 166 178 275 271 252 230 134 131 209 259 283 291 289 292 301 312 317 316 315 316
5 7 346 356 1 358 14 51 40 39 80 90 64 81 80 87 109 90 52 55 63 72 77 61 59 86 114 148 222 342 43 53 14 30 62 53 43 39 29 23 7 342 345 34 79 35 40 123 310 269 92 82 140 148 110 269 219 170 190 319 334 319 308 116 259 245 169 24 108 134 252 267 258 230 189 189 219 251 280 284 277 279 293 308 316 317 316 318
1 353 340 356 359 357 39 71 47 36 56 68 73 84 73 56 76 115 55 43 48 49 59 57 25 50 66 123 101 48 17 23 11 33 74 76 56 47 15 18 22 3 352 82 104 5 351 132 18 304 258 50 145 164 258 347 3 26 229 255 318 334 36 117 180 157 148 203 152 99 257 264 257 224 210 221 241 258 280 288 280 281 304 320 319 316 316 318
347 346 350 5 359 353 81 103 105 84 70 85 76 60 61 49 51 78 59 40 38 15 50 73 354 33 68 77 85 67 14 40 27 21 65 85 78 72 19 32 48 31 23 110 37 344 352 106 79 322 340 346 344 313 322 340 345 269 231 160 105 68 71 56 61 80 105 219 155 133 249 259 242 216 224 238 253 274 301 318 319 321 331 328 318 315 317 318
347 342 14 20 8 23 98 122 136 130 132 124 94 60 78 60 47 67 68 55 48 34 55 81 38 55 71 70 78 61 39 77 82 4 47 73 110 113 49 55 71 65 79 112 7 336 10 81 18 108 123 193 247 234 250 304 238 233 129 137 163 139 142 150 57 97 238 233 142 161 231 259 267 252 256 267 287 311 322 329 333 332 330 323 317 317 319 319
8 8 9 17 20 55 86 108 125 124 145 151 118 143 137 82 54 82 73 68 71 61 72 92 72 68 58 48 75 65 37 48 67 122 79 80 123 129 65 77 82 81 102 87 19 2 31 24 49 356 232 220 226 233 190 129 213 231 186 189 201 190 192 195 76 197 201 173 194 223 233 266 284 284 295 308 315 316 317 324 328 325 321 317 316 317 318 320
353 9 331 4 25 59 73 83 105 117 148 159 136 150 137 110 117 94 54 53 107 89 78 85 94 99 137 127 98 100 83 28 38 67 74 68 100 122 115 102 85 92 121 60 11 24 351 296 41 333 265 249 255 258 197 155 213 230 215 215 201 187 196 198 210 225 159 115 254 247 212 246 273 282 295 300 304 305 309 319 322 317 313 310 311 313 315 318
347 146 191 165 38 62 62 77 109 111 117 125 116 133 131 125 143 142 79 91 116 132 108 93 212 231 190 119 116 142 160 27 38 79 91 110 142 157 151 108 95 125 113 53 12 48 82 273 255 255 274 271 269 261 216 181 218 234 224 228 209 187 192 201 220 239 202 191 247 278 327 275 274 285 288 283 285 290 299 309 312 308 306 306 310 313 314 316
87 99 130 135 116 108 108 129 127 112 100 97 101 147 157 147 146 141 125 115 104 225 165 112 182 194 123 48 45 116 133 356 289 199 159 137 159 191 180 105 176 162 121 101 47 44 88 185 163 343 292 286 279 277 237 203 227 246 232 227 218 208 207 212 227 239 242 252 265 287 297 286 276 270 271 278 283 285 291 298 302 303 303 307 314 315 314 314
215 154 146 126 101 99 111 129 132 109 90 93 102 178 174 152 153 162 142 126 131 182 187 140 127 126 101 66 69 85 66 343 38 180 159 131 160 230 204 152 140 141 144 118 60 28 105 138 127 90 318 293 294 29 321 216 224 246 243 227 218 226 228 228 234 231 234 257 267 270 276 279 275 268 266 273 278 278 282 289 297 303 305 309 313 315 314 312
230 233 186 133 101 104 123 138 143 106 120 169 144 172 181 171 165 150 109 64 119 140 161 140 129 121 85 79 88 85 60 82 94 107 122 120 148 177 160 121 132 146 171 137 27 266 120 126 136 89 358 289 257 188 235 240 257 267 267 244 218 219 224 223 227 214 204 225 246 254 260 259 260 263 264 270 274 276 281 289 299 303 304 308 310 313 315 311
220 216 199 160 111 140 161 166 181 147 159 161 141 155 166 166 161 147 101 17 152 142 144 141 139 142 113 100 119 128 128 115 109 106 105 110 117 112 100 98 105 113 141 142 82 350 65 261 190 94 295 270 261 214 213 258 328 294 271 229 198 198 218 235 247 228 210 198 183 207 231 240 255 287 300 290 288 289 292 297 301 299 301 304 306 309 312 310